Regional Weather Roundup
Issued by NWS San Diego, CA

Home | Current Version | Previous Version | Text Only | Print | Product List | Glossary On
Versions: 1 2 3 4 5 6 7 8 9 10 11 12 13 14 15 16 17 18 19 20 21 22 23 24 25 26 27 28
000
ASUS46 KSGX 220911
RWRSGX

SAN DIEGO HOURLY WEATHER ROUNDUP
NATIONAL WEATHER SERVICE SAN DIEGO CA
200 AM PDT SUN APR 22 2018

NOTE: "FAIR" INDICATES FEW OR NO CLOUDS BELOW 12,000 FEET WITH NO
SIGNIFICANT WEATHER AND/OR OBSTRUCTIONS TO VISIBILITY.

CAZ042-043-060-061-PZZ750-775-221000-

GREATER SAN DIEGO AREA

CITY           SKY/WX    TMP DP  RH WIND       PRES   REMARKS
SAN DIEGO AP   PTCLDY    60  54  80 CALM      29.98F
NATIONAL CITY    N/A     58  55  88 CALM      29.96F
CHULA VISTA      N/A     55  53  92 CALM      29.88F
IMPERIAL BEACH CLEAR     50  50 100 CALM      29.96F
BROWN FIELD    CLEAR     55  51  86 E3        29.95F
MIRAMAR MCAS   CLEAR     54  44  69 CALM      29.96F
MONTGOMERY FLD CLEAR     59  52  77 CALM      29.97S
GILLESPIE FLD  FAIR      55  46  71 CALM      29.95F

$$

NORTH SAN DIEGO COUNTY

CITY           SKY/WX    TMP DP  RH WIND       PRES   REMARKS
CAMP PENDLETON CLEAR     48  46  93 CALM      29.96S
OCEANSIDE AP   PTCLDY    49  46  90 CALM      29.96S
OCEANSIDE HBR    N/A     54  53  95 CALM      29.98F
VISTA            N/A     55  49  82 CALM      29.94S
CARLSBAD       CLEAR     58  55  90 CALM      29.95F
DEL MAR          N/A     55  54  95 CALM      29.98S
LA JOLLA SCRIP   N/A     58  56  94 CALM      29.96S
FALLBROOK        N/A     56  53  91 CALM      29.96F
ESCONDIDO        N/A     59  48  66 CALM      29.95F
SAN MARCOS       N/A     57  49  74 CALM      29.99F
POWAY            N/A     53  45  75 CALM      29.95F

$$

EAST SAN DIEGO COUNTY

CITY           SKY/WX    TMP DP  RH WIND       PRES   REMARKS
RAMONA         CLEAR     52  42  69 E5        29.98F
SANTEE LAKES     N/A     54  46  74 CALM      29.95F
LA MESA          N/A     59  52  76 CALM      29.90F
JAMUL            N/A     53  47  79 CALM      29.95F
CAMPO            N/A     45  29  53 NE8       29.99F

$$

ORANGE COUNTY AND THE LOS ANGELES BASIN

CITY           SKY/WX    TMP DP  RH WIND       PRES   REMARKS
JOHN WAYNE AP  CLEAR     60  54  80 CALM      29.96F
LAGUNA BEACH     N/A     52  49  90 CALM      29.91F
LAKE FOREST FR   N/A     59  46  62 CALM      29.83R
HUNTINGTON BCH   N/A     54  52  94 CALM      29.97F
LOS ALAMITOS   FAIR      56  53  88 CALM      29.95F
FULLERTON      PTCLDY    60  54  80 S3        29.95F
LONG BEACH     PTCLDY    60  54  80 CALM      29.96F
L.A. AP        PTCLDY    58  53  84 W6        29.96F
L.A. DOWNTOWN  CLEAR     60  53  77 CALM      29.95F

$$

THE INLAND EMPIRE

CITY           SKY/WX    TMP DP  RH WIND       PRES   REMARKS
CORONA         PTCLDY    51  46  83 CALM      29.97
CHINO          PTCLDY    62  49  62 S3        29.97F
ONTARIO        MOCLDY    64  44  48 CALM      29.96F
SAN BERNARDINO FAIR      63  34  33 CALM      29.97F
RIVERSIDE AP   PTCLDY    63  43  48 CALM      29.96F
MORENO VALLEY    N/A     63  42  45 CALM      28.10F
MARCH ARB      PTCLDY    53  36  52 CALM      29.98F
HORSETHIEF CYN   N/A     61  25  25 W3        29.95F
PERRIS           N/A     63  47  56 CALM      29.93F
HEMET EAST       N/A     64  25  22 CALM      29.89F
FRENCH VALLEY  FAIR      55  43  62 CALM      29.98F
TEMECULA         N/A     58  50  76 CALM      30.03F

$$

SAN BERNARDINO AND RIVERSIDE COUNTY MOUNTAINS

CITY           SKY/WX    TMP DP  RH WIND       PRES   REMARKS
BIG BEAR AP    MOCLDY    36  19  51 CALM      30.21F
ANGELUS OAKS     N/A     50  22  32 CALM      29.89F

$$

SOUTHERN DESERT INCLUDING THE COACHELLA VALLEY

CITY           SKY/WX    TMP DP  RH WIND       PRES   REMARKS
PALM SPRINGS   PTCLDY    76  36  23 W3        29.90F
THOUSAND PALMS   N/A     79  32  18 W2        29.85F
PALM DESERT      N/A     74  43  33 CALM        N/A
THERMAL        PTCLDY    65  39  38 CALM      29.84F
BLYTHE         PTCLDY    69  28  21 VRB5      29.87F
IMPERIAL AP    CLEAR     68  35  29 W7        29.85F
EL CENTRO NAS  CLEAR     67  27  22 SW5       29.87F
YUMA AZ        CLEAR     67  39  35 S3        29.87F
MEXICALI         N/A    N/A N/A N/A MISG        N/A

$$

UPPER DESERT

CITY           SKY/WX    TMP DP  RH WIND       PRES   REMARKS
VICTORVILLE AP PTCLDY    61  25  25 S6        30.05F
HESPERIA         N/A     58  32  37 CALM      29.99F
APPLE VALLEY     N/A     47  38  69 CALM      30.02F
PALMDALE       PTCLDY    60  31  33 SW9       30.03F
LANCASTER      MOCLDY    62  36  37 W8        30.02F
EDWARDS AFB    MOCLDY    59  35  41 SW9       29.99F
DAGGETT        PTCLDY    64  28  25 W9        29.99F
29 PALMS N     PTCLDY    67  13  12 W6        30.04F
NEEDLES        PTCLDY    74  19  12 S3        29.90F

$$

REGIONAL REPORTS

CITY           SKY/WX    TMP DP  RH WIND       PRES   REMARKS
SANTA BARBARA  CLEAR     55  53  93 E5        29.94S
SANDBERG       MOCLDY    57  35  43 N14G24    30.13F
LAS VEGAS NV   MOCLDY    68  27  21 S6        29.98F
PHOENIX AZ     MOCLDY    72  35  25 SE6       29.90S
TIJUANA        CLEAR     59  54  82 CALM      29.99F

$$

OFFSHORE ISLANDS

CITY           SKY/WX    TMP DP  RH WIND       PRES   REMARKS
CATALINA ARPT  CLEAR     68  40  35 W10       30.00F

$$

MARINE AND OFFSHORE BUOY REPORTS

STATION/POSITION SKY/WX   TEMP    WIND        PRES    VSBY  SWELL
                          AIR SEA DIR/SP/G                  HT/PER/DIR
                          (F)     (DEG/KT/KT) (MB)    (MI)  (FT/S/D)
TANNER BANKS               58 57              1015.0
S CLEMENTE BASIN           61 62  240/  8/  8 1014.5F         5/210/16
SAN NICOLAS IS.               56                N/A           5/250/15
SO. S. ROSA ISLA           55 55  290/ 16/ 17 1014.2F         7/280/16
W. S. BARBARA CH              53  310/ 19/ 23 1013.6F         7/280/15
M. S. BARBARA CH           56 56  230/ 12/ 14 1014.4
S. MONICA BASIN                   190/  2/  6 1014.0F         3/150/16
S PEDRO CHANNEL               56                N/A           2/160/17
CMP PENDLETON NS              60                N/A           2/210/15
OCEANSIDE OFFSHR              60                N/A           2/200/15
TORREY PINES OTR              60                N/A           2/220/15
SAN DIEGO BAY                 60              1014.3F
POINT LOMA SOUTH              60                N/A           3/190/17

$$





USA.gov is the U.S. government's official web portal to all federal, state and local government web resources and services.